Chicago Midway, IL

11:37 AM CST on December 06, 2019 (GMT -0600)
Chicago-Midway

Weather History for KMDW - October, 2019

Change the Weather History Date:

Sunday, October 13, 2019

  Actual Average Record
Temperature  
Mean Temperature 47 °F 55 °F  
Max Temperature 56 °F 64 °F 88 °F (1975)
Min Temperature 38 °F 46 °F 30 °F (1987)
Degree Days  
Heating Degree Days 18 10  
Month to date heating degree days 90 109  
Since 1 July heating degree days 91 191  
Cooling Degree Days 0 1  
Month to date cooling degree days 21 13  
Year to date cooling degree days 1131 1042  
Moisture  
Dew Point 32 °F    
Average Humidity 56    
Maximum Humidity 77    
Minimum Humidity 33    
Precipitation  
Precipitation 0.00 in 0.10 in 2.43 in (1970)
Month to date precipitation 1.43 1.30  
Year to date precipitation 39.25 31.16  
Sea Level Pressure  
Sea Level Pressure 29.87 in    
Wind  
Wind Speed 12 mph (West)    
Max Wind Speed 24 mph    
Max Gust Speed 36 mph    
Visibility 10 miles    
Events      
T = Trace of Precipitation, MM = Missing Value Source: NWS Daily Summary

Daily Weather History Graph

Daily Weather History Graph

Search for Another Location

Airport or City:

Astronomy

Oct. 13, 2019 Rise Set
Actual Time 7:00 AM CDT 6:13 PM CDT
Civil Twilight 6:32 AM CDT 6:41 PM CDT
Nautical Twilight 6:00 AM CDT 7:13 PM CDT
Astronomical Twilight 5:28 AM CDT 7:45 PM CDT
Moon 6:36 PM CDT (10/13) 6:33 AM CDT (10/13)
Length of Visible Light 12h 08m
Length of Day
11h 12m
Full, 100% of the Moon is Illuminated
Oct 13
Full
Oct 13
Full
Oct 21
Last Quarter
Oct 27
New
Nov 4
First Quarter

Hourly Weather History & Observations

Time (CDT) Temp. Windchill Dew Point Humidity Pressure Visibility Wind Dir Wind Speed Gust Speed Precip Events Conditions
12:53 AM 50.0 °F - 34.0 °F 54% 29.84 in 10.0 mi SW 15.0 mph 26.5 mph N/A   Mostly Cloudy
1:53 AM 46.9 °F - 34.0 °F 61% 29.84 in 10.0 mi WSW 8.1 mph - N/A   Partly Cloudy
2:53 AM 41.0 °F 36.4 °F 34.0 °F 76% 29.84 in 10.0 mi NW 6.9 mph - N/A   Partly Cloudy
3:53 AM 39.9 °F 36.7 °F 33.1 °F 77% 29.84 in 10.0 mi West 4.6 mph - N/A   Partly Cloudy
4:53 AM 41.0 °F 39.0 °F 33.1 °F 73% 29.84 in 10.0 mi SW 3.5 mph - N/A   Partly Cloudy
5:53 AM 39.9 °F 35.1 °F 33.1 °F 77% 29.84 in 10.0 mi SSW 6.9 mph - N/A   Partly Cloudy
6:53 AM 39.0 °F 34.0 °F 32.0 °F 76% 29.86 in 10.0 mi SSW 6.9 mph - N/A   Scattered Clouds
7:53 AM 42.1 °F 36.1 °F 32.0 °F 67% 29.85 in 10.0 mi SW 10.4 mph - N/A   Mostly Cloudy
8:53 AM 45.0 °F 37.9 °F 32.0 °F 60% 29.86 in 10.0 mi WSW 16.1 mph 24.2 mph N/A   Scattered Clouds
9:53 AM 46.0 °F 39.0 °F 30.9 °F 56% 29.88 in 10.0 mi West 17.3 mph 27.6 mph N/A   Mostly Cloudy
10:53 AM 48.0 °F - 30.9 °F 52% 29.88 in 10.0 mi West 21.9 mph 29.9 mph N/A   Mostly Cloudy
11:53 AM 51.1 °F - 32.0 °F 48% 29.87 in 10.0 mi West 19.6 mph 33.4 mph N/A   Mostly Cloudy
12:53 PM 53.1 °F - 32.0 °F 45% 29.83 in 10.0 mi WSW 18.4 mph 31.1 mph N/A   Scattered Clouds
1:53 PM 55.0 °F - 32.0 °F 42% 29.82 in 10.0 mi WSW 23.0 mph 32.2 mph N/A   Mostly Cloudy
2:53 PM 55.0 °F - 33.1 °F 43% 29.82 in 10.0 mi WSW 19.6 mph 28.8 mph N/A   Mostly Cloudy
3:53 PM 54.0 °F - 33.1 °F 45% 29.83 in 10.0 mi West 13.8 mph 23.0 mph N/A   Mostly Cloudy
4:53 PM 53.1 °F - 33.1 °F 47% 29.85 in 10.0 mi WNW 15.0 mph 20.7 mph N/A   Mostly Cloudy
5:53 PM 51.1 °F - 33.1 °F 50% 29.88 in 10.0 mi NW 13.8 mph - N/A   Mostly Cloudy
6:53 PM 50.0 °F - 33.1 °F 52% 29.91 in 10.0 mi WNW 11.5 mph 17.3 mph N/A   Mostly Cloudy
7:53 PM 48.0 °F - 30.9 °F 52% 29.94 in 10.0 mi NW 16.1 mph 24.2 mph N/A   Overcast
8:53 PM 46.9 °F - 30.9 °F 54% 29.95 in 10.0 mi NW 9.2 mph - N/A   Overcast
9:53 PM 46.9 °F - 32.0 °F 56% 29.97 in 10.0 mi WNW 8.1 mph - N/A   Overcast
10:53 PM 46.0 °F 41.9 °F 32.0 °F 58% 29.96 in 10.0 mi WNW 8.1 mph - N/A   Overcast
11:53 PM 45.0 °F 41.2 °F 30.9 °F 58% 29.96 in 10.0 mi WNW 6.9 mph - N/A   Overcast